{"data":{"norad_id":62953,"epoch":"2026-09-21T21:25:24.397536Z","epoch_age_seconds":44811,"freshness":"FRESH","line1":"1 62953U 25029F   26264.89264349  .00004207  00000+0  13568-3 0  9996","line2":"2 62953  53.1602  34.9811 0000853 108.1383 251.9713 15.34377327 91459","mean_motion":15.34377327,"eccentricity":8.53e-5,"inclination_deg":53.1602,"raan_deg":34.9811,"arg_perigee_deg":108.1383,"mean_anomaly_deg":251.9713,"bstar":0.00013568,"rev_number":9145,"period_min":93.849144839456,"perigee_km":462.18710055021,"apogee_km":463.35415939188,"semimajor_km":6840.907629971,"source":"CELESTRAK","updated_at":"2026-09-22T09:00:49.711988Z"}}